Weather History for Troy, MI

Change the Weather History Date:

Friday, April 19, 2013

  Actual Average (KDET) Record (KDET)
Temperature  
Mean Temperature 48 °F -  
Max Temperature 59 °F 61 °F 82 °F (2005)
Min Temperature 38 °F 42 °F 28 °F (1953)
Degree Days  
Heating Degree Days 16    
Moisture  
Dew Point 40 °F    
Average Humidity 78    
Maximum Humidity 99    
Minimum Humidity 56    
Precipitation  
Precipitation 0.00 in - - ()
Sea Level Pressure  
Sea Level Pressure 29.56 in    
Wind  
Wind Speed 10 mph (SW)    
Max Wind Speed 26 mph    
Max Gust Speed 44 mph    
Visibility 8 miles    
Events Rain , Snow    
Averages and records for this station are not official NWS values.
T = Trace of Precipitation, MM = Missing Value Source: NWS Daily Summary

Daily Weather History Graph

Daily Weather History Graph

Search for Another Location

Airport:

Trip Planner

Search our weather history database for the weather conditions in past years. The results will help you decide how hot, cold, wet, or windy it might be!

Date:

Astronomy

Apr. 19, 2013 Rise Set
Actual Time 6:44 AM EDT 8:19 PM EDT
Civil Twilight 6:15 AM EDT 8:49 PM EDT
Nautical Twilight 5:39 AM EDT 9:25 PM EDT
Astronomical Twilight 5:01 AM EDT 10:03 PM EDT
Moon 1:55 PM EDT (4/19) 3:07 AM EDT (4/19)
Length of Visible Light 14h 33m
Length of Day
13h 34m
First Quarter, 61% of the Moon is Illuminated
Apr 19
First Quarter
Apr 25
Full
May 2
Last Quarter
May 9
New
May 18
First Quarter

Hourly Weather History & Observations

Time (EDT) Temp. Windchill Dew Point Humidity Pressure Visibility Wind Dir Wind Speed Gust Speed Precip Events Conditions
12:15 AM 59.0 °F - 58.1 °F 97% 29.61 in 10.0 mi SSE 3.5 mph - N/A   Overcast
12:35 AM 59.0 °F - 58.1 °F 97% 29.59 in 10.0 mi Calm Calm - N/A   Overcast
12:55 AM 58.6 °F - 58.1 °F 98% 29.57 in 10.0 mi Calm Calm - N/A   Overcast
1:15 AM 58.5 °F - 58.1 °F 99% 29.56 in 7.0 mi South 3.5 mph - N/A   Overcast
1:35 AM 58.8 °F - 58.1 °F 97% 29.57 in 7.0 mi WSW 4.6 mph - N/A   Overcast
1:55 AM 58.6 °F - 58.1 °F 98% 29.55 in 7.0 mi SSW 3.5 mph - N/A   Overcast
2:15 AM 58.6 °F - 58.1 °F 98% 29.54 in 5.0 mi South 5.8 mph - N/A   Overcast
2:35 AM 58.3 °F - 57.7 °F 98% 29.52 in 5.0 mi South 6.9 mph - N/A Rain Light Rain
2:55 AM 58.1 °F - 57.6 °F 98% 29.52 in 5.0 mi South 5.8 mph - N/A Rain Rain
3:15 AM 57.7 °F - 57.2 °F 98% 29.51 in 4.0 mi South 5.8 mph - N/A Rain Rain
3:35 AM 57.4 °F - 56.8 °F 98% 29.48 in 3.0 mi SE 3.5 mph - N/A Rain Rain
3:55 AM 57.2 °F - 56.5 °F 97% 29.46 in 3.0 mi Calm Calm - N/A Rain Rain
4:15 AM 56.8 °F - 56.5 °F 99% 29.44 in 4.0 mi SE 3.5 mph - N/A Rain Light Rain
4:35 AM 57.2 °F - 56.7 °F 98% 29.42 in 4.0 mi Calm Calm - N/A Rain Light Rain
4:55 AM 57.2 °F - 56.8 °F 99% 29.41 in 5.0 mi Calm Calm - N/A Rain Light Rain
5:14 AM 57.2 °F - 56.8 °F 99% 29.40 in 4.0 mi Calm Calm - N/A Rain Rain
5:35 AM 57.6 °F - 57.2 °F 99% 29.38 in 4.0 mi SSE 4.6 mph - N/A Rain Rain
5:55 AM 58.6 °F - 58.1 °F 98% 29.37 in 7.0 mi South 8.1 mph - N/A Rain Light Rain
6:14 AM 59.0 °F - 57.9 °F 96% 29.35 in 5.0 mi South 5.8 mph - N/A Rain Light Rain
6:54 AM 59.4 °F - 57.4 °F 93% 29.35 in 10.0 mi SSW 11.5 mph 19.6 mph N/A   Light Drizzle
7:15 AM 51.8 °F - 48.4 °F 88% 29.38 in 7.0 mi West 21.9 mph 33.4 mph N/A Rain Rain
7:34 AM 48.4 °F - 46.6 °F 93% 29.40 in 4.0 mi West 13.8 mph 18.4 mph N/A Rain Light Rain
7:55 AM 48.0 °F - 46.2 °F 93% 29.42 in 4.0 mi West 13.8 mph 18.4 mph N/A Rain Rain
8:15 AM 47.3 °F - 45.7 °F 94% 29.42 in 3.0 mi WSW 13.8 mph 20.7 mph N/A Rain Rain
8:34 AM 46.6 °F - 45.0 °F 94% 29.43 in 3.0 mi West 11.5 mph 18.4 mph N/A   Heavy Drizzle
8:55 AM 45.7 °F 38.0 °F 44.1 °F 94% 29.43 in 3.0 mi West 19.6 mph 24.2 mph N/A Rain Light Rain
9:15 AM 44.6 °F 39.2 °F 42.1 °F 91% 29.45 in 10.0 mi West 10.4 mph 21.9 mph N/A   Light Drizzle
9:34 AM 43.7 °F 35.4 °F 40.3 °F 88% 29.45 in 10.0 mi West 19.6 mph 29.9 mph N/A   Overcast
9:55 AM 42.8 °F 34.8 °F 39.2 °F 87% 29.46 in 10.0 mi WSW 17.3 mph 23.0 mph N/A   Overcast
10:15 AM 41.9 °F 33.4 °F 37.8 °F 85% 29.47 in 10.0 mi West 18.4 mph 26.5 mph N/A   Overcast
10:55 AM 41.0 °F 33.1 °F 36.9 °F 85% 29.49 in 10.0 mi WSW 15.0 mph 24.2 mph N/A   Overcast
11:14 AM 41.2 °F 31.6 °F 37.2 °F 86% 29.49 in 10.0 mi WSW 21.9 mph 31.1 mph N/A   Overcast
11:35 AM 41.7 °F 32.3 °F 32.5 °F 70% 29.52 in 10.0 mi WSW 21.9 mph 32.2 mph N/A   Overcast
11:54 AM 41.4 °F 33.0 °F 32.0 °F 69% 29.53 in 10.0 mi WSW 17.3 mph 31.1 mph N/A   Overcast
12:15 PM 41.5 °F 33.2 °F 32.0 °F 69% 29.53 in 10.0 mi WSW 17.3 mph 28.8 mph N/A   Overcast
12:35 PM 41.2 °F 32.4 °F 31.6 °F 69% 29.54 in 10.0 mi WSW 18.4 mph 31.1 mph N/A   Overcast
12:55 PM 41.0 °F 30.7 °F 31.8 °F 70% 29.54 in 10.0 mi WSW 25.3 mph 43.7 mph N/A   Overcast
1:15 PM 41.9 °F 32.6 °F 30.0 °F 63% 29.55 in 10.0 mi SW 21.9 mph 29.9 mph N/A   Overcast
1:34 PM 41.4 °F 31.2 °F 30.6 °F 65% 29.55 in 10.0 mi SW 25.3 mph 38.0 mph N/A   Overcast
1:55 PM 41.0 °F 31.6 °F 31.3 °F 68% 29.55 in 10.0 mi WSW 20.7 mph 34.5 mph N/A   Overcast
2:14 PM 41.7 °F 32.6 °F 30.6 °F 65% 29.56 in 10.0 mi WSW 20.7 mph 32.2 mph N/A   Overcast
2:35 PM 43.0 °F 36.0 °F 30.0 °F 60% 29.56 in 10.0 mi WSW 13.8 mph 27.6 mph N/A   Overcast
2:55 PM 42.8 °F 33.3 °F 29.1 °F 58% 29.57 in 10.0 mi WSW 24.2 mph 35.7 mph N/A   Overcast
3:15 PM 42.8 °F 34.5 °F 29.3 °F 59% 29.58 in 10.0 mi SW 18.4 mph 31.1 mph N/A   Overcast
3:35 PM 42.8 °F 34.5 °F 29.5 °F 59% 29.59 in 10.0 mi SW 18.4 mph 27.6 mph N/A   Overcast
3:55 PM 42.8 °F 34.3 °F 29.3 °F 59% 29.59 in 10.0 mi WSW 19.6 mph 27.6 mph N/A   Overcast
4:15 PM 42.3 °F 32.2 °F 28.8 °F 59% 29.60 in 10.0 mi WSW 26.5 mph 35.7 mph N/A   Overcast
4:34 PM 42.6 °F 32.6 °F 28.8 °F 58% 29.61 in 10.0 mi WSW 26.5 mph 43.7 mph N/A   Overcast
4:55 PM 42.3 °F 33.1 °F 28.2 °F 58% 29.61 in 10.0 mi WSW 21.9 mph 33.4 mph N/A   Overcast
5:15 PM 42.1 °F 31.9 °F 27.5 °F 56% 29.63 in 10.0 mi WSW 26.5 mph 40.3 mph N/A   Overcast
5:34 PM 42.1 °F 33.1 °F 27.9 °F 57% 29.64 in 10.0 mi WSW 20.7 mph 34.5 mph N/A   Overcast
5:55 PM 41.5 °F 34.2 °F 29.3 °F 62% 29.66 in 10.0 mi SW 13.8 mph 31.1 mph N/A   Overcast
6:15 PM 41.4 °F 32.1 °F 27.9 °F 59% 29.67 in 10.0 mi WSW 20.7 mph 34.5 mph N/A   Overcast
6:34 PM 41.9 °F 32.8 °F 28.0 °F 58% 29.67 in 10.0 mi WSW 20.7 mph 27.6 mph N/A   Overcast
6:55 PM 41.9 °F 34.0 °F 27.3 °F 56% 29.68 in 10.0 mi SW 16.1 mph 27.6 mph N/A   Overcast
7:15 PM 41.2 °F 33.0 °F 28.0 °F 60% 29.69 in 10.0 mi SW 16.1 mph 31.1 mph N/A   Overcast
7:35 PM 41.2 °F 31.1 °F 27.5 °F 58% 29.70 in 10.0 mi WSW 24.2 mph 32.2 mph N/A   Overcast
7:55 PM 40.6 °F 30.7 °F 28.9 °F 63% 29.71 in 10.0 mi WSW 23.0 mph 32.2 mph N/A   Overcast
8:15 PM 40.1 °F 32.7 °F 29.3 °F 65% 29.71 in 10.0 mi SW 12.7 mph 29.9 mph N/A   Overcast
8:35 PM 40.1 °F 33.2 °F 28.4 °F 63% 29.72 in 10.0 mi SW 11.5 mph 29.9 mph N/A   Overcast
8:55 PM 40.1 °F 30.5 °F 28.2 °F 63% 29.73 in 10.0 mi SW 20.7 mph 27.6 mph N/A   Overcast
9:15 PM 40.1 °F 31.6 °F 28.0 °F 62% 29.73 in 10.0 mi SW 16.1 mph 23.0 mph N/A   Overcast
9:35 PM 39.4 °F 30.7 °F 28.4 °F 65% 29.74 in 10.0 mi SW 16.1 mph 25.3 mph N/A   Overcast
9:55 PM 39.2 °F 31.2 °F 28.8 °F 66% 29.75 in 10.0 mi WSW 13.8 mph 25.3 mph N/A   Overcast
10:15 PM 39.2 °F 30.2 °F 28.6 °F 66% 29.75 in 10.0 mi SW 17.3 mph 27.6 mph N/A   Overcast
10:34 PM 39.2 °F 30.8 °F 28.2 °F 65% 29.75 in 10.0 mi SW 15.0 mph 25.3 mph N/A   Overcast
10:55 PM 38.8 °F 30.8 °F 28.6 °F 67% 29.75 in 10.0 mi SW 13.8 mph - N/A   Overcast
11:15 PM 38.3 °F 29.7 °F 29.3 °F 70% 29.75 in 10.0 mi WSW 15.0 mph 28.8 mph N/A   Overcast
11:35 PM 38.3 °F 29.7 °F 29.3 °F 70% 29.75 in 10.0 mi SW 15.0 mph 25.3 mph N/A   Overcast
11:55 PM 38.1 °F 29.5 °F 30.2 °F 73% 29.76 in 10.0 mi WSW 15.0 mph 25.3 mph N/A Snow Light Snow